Location: Amsterdam
(30.7274°N, 84.4357°W)
Time: 20:17:44
(UTC+00:00)

Altair - Pass Details

Date: 11 August 2024
Orbit: 1501 x 1682 km, 47.2° (Epoch: 07 September)

Event Time Altitude Azimuth Distance (km) Brightness Sun altitude
Rises 22:17:21 0° 307° (NW) 4,778 10.9 25.7°
Reaches altitude 10° 22:20:48 10° 315° (NW) 3,765 10.4 25.0°
Maximum altitude 22:29:34 40° 23° (NNE) 2,123 8.4 23.1°
Drops below altitude 10° 22:38:05 10° 90° (E) 3,659 9.0 21.3°
Sets 22:41:21 0° 98° (E) 4,631 9.4 20.6°
